Terug naar catalogus

COSMOS 2366

ActiefMilitairPO
NORAD 25892·PAYLOAD·🇷🇺 Russia

Gelanceerd Aug 26, 1999 vanaf Plesetsk Cosmodrome

Loading…

Volgende Passages (komende 24 uur)

TLE

VersSource: Space-Track

Epoch: Sep 14, 2026, 08:52 UTC

1 25892U 99045A   26257.37013524  .00000034  00000-0  19146-4 0  9992
2 25892  82.9268  58.0520 0032869 108.9902 269.6317 13.74698387357207

Volg COSMOS 2366 in realtime met AllMySat

Download on the App Store